Weather History for KASE - August, 2014

Change the Weather History Date:

Tuesday, August 19, 2014

  Actual Average Record
Temperature  
Mean Temperature 65 °F 61 °F  
Max Temperature 77 °F 77 °F 85 °F (2013)
Min Temperature 53 °F 46 °F 41 °F (1992)
Degree Days  
Heating Degree Days 0 4  
Month to date heating degree days 47 59  
Since 1 June heating degree days 277 359  
Since 1 July heating degree days 72 130  
Cooling Degree Days 0 0  
Month to date cooling degree days 1 9  
Year to date cooling degree days 56 38  
Since 1 June cooling degree days 56 38  
Growing Degree Days 15 (Base 50)    
Moisture  
Dew Point 45 °F    
Average Humidity 59    
Maximum Humidity 93    
Minimum Humidity 25    
Precipitation  
Precipitation 0.14 in 0.04 in 0.57 in (2010)
Month to date precipitation 0.84 1.11  
Year to date precipitation 8.31 10.89  
Sea Level Pressure  
Sea Level Pressure 29.87 in    
Wind  
Wind Speed 5 mph (South)    
Max Wind Speed 20 mph    
Max Gust Speed 27 mph    
Visibility 10 miles    
Events Rain , Thunderstorm    
T = Trace of Precipitation, MM = Missing Value Source: NWS Daily Summary

Daily Weather History Graph

Daily Weather History Graph

Search for Another Location

Airport or City:

Trip Planner

Search our weather history database for the weather conditions in past years. The results will help you decide how hot, cold, wet, or windy it might be!

Date:

Astronomy

Aug. 19, 2014 Rise Set
Actual Time 6:24 AM MDT 7:57 PM MDT
Civil Twilight 5:55 AM MDT 8:25 PM MDT
Nautical Twilight 5:21 AM MDT 8:59 PM MDT
Astronomical Twilight 4:45 AM MDT 9:35 PM MDT
Moon 1:19 AM MDT (8/19) 3:55 PM MDT (8/19)
Length of Visible Light 14h 29m
Length of Day
13h 33m
Waning Crescent, 28% of the Moon is Illuminated
Aug 19
Waning Crescent
Aug 25
New
Sep 2
First Quarter
Sep 8
Full
Sep 15
Last Quarter

Hourly Weather History & Observations

Time (MDT) Temp. Dew Point Humidity Pressure Visibility Wind Dir Wind Speed Gust Speed Precip Events Conditions
12:53 AM 59.0 °F 37.0 °F 44% 29.80 in 10.0 mi SW 6.9 mph - N/A   Clear
1:53 AM 59.0 °F 37.9 °F 46% 29.80 in 10.0 mi SSW 6.9 mph - N/A   Clear
3:53 AM 59.0 °F 37.0 °F 44% 29.82 in 10.0 mi North 3.5 mph - 0.00 in Rain Light Rain
4:53 AM 57.0 °F 41.0 °F 55% 29.82 in 10.0 mi ESE 4.6 mph - 0.00 in   Overcast
5:53 AM 57.9 °F 43.0 °F 58% 29.81 in 10.0 mi South 11.5 mph - 0.00 in   Overcast
6:53 AM 60.1 °F 39.0 °F 46% 29.82 in 10.0 mi SSE 6.9 mph - N/A   Partly Cloudy
7:53 AM 61.0 °F 39.0 °F 44% 29.84 in 10.0 mi SSE 8.1 mph - N/A   Clear
8:53 AM 60.1 °F 45.0 °F 57% 29.89 in 10.0 mi Calm Calm - N/A   Overcast
9:53 AM 61.0 °F 45.0 °F 56% 29.91 in 10.0 mi NNE 4.6 mph - 0.00 in   Overcast
10:53 AM 64.0 °F 43.0 °F 46% 29.86 in 10.0 mi SW 4.6 mph - N/A   Mostly Cloudy
11:53 AM 68.0 °F 41.0 °F 37% 29.83 in 10.0 mi SW 3.5 mph - N/A   Clear
12:53 PM 73.9 °F 39.9 °F 29% 29.75 in 10.0 mi Variable 5.8 mph - N/A   Scattered Clouds
1:53 PM 75.9 °F 39.9 °F 27% 29.71 in 10.0 mi NW 12.7 mph - N/A   Scattered Clouds
1:59 PM 75.0 °F 39.9 °F 28% 30.12 in 10.0 mi NW 11.5 mph 18.4 mph N/A   Mostly Cloudy
3:10 PM 73.9 °F 37.9 °F 27% 30.10 in 10.0 mi SE 13.8 mph 21.9 mph N/A   Overcast
3:44 PM 60.1 °F 48.9 °F 67% 30.14 in 6.0 mi SE 13.8 mph 21.9 mph 0.01 in Rain , Thunderstorm Light Rain
3:53 PM 60.1 °F 48.9 °F 67% 29.82 in 10.0 mi SSE 17.3 mph 26.5 mph 0.01 in Rain , Thunderstorm Light Thunderstorms and Rain
4:04 PM 60.1 °F 50.0 °F 69% 30.18 in 10.0 mi South 12.7 mph 20.7 mph 0.00 in Rain Light Rain
4:25 PM 57.0 °F 50.0 °F 77% 30.15 in 4.0 mi East 15.0 mph - 0.09 in Rain Rain
4:53 PM 59.0 °F 48.9 °F 69% 29.81 in 10.0 mi Variable 5.8 mph 18.4 mph 0.09 in   Partly Cloudy
5:53 PM 63.0 °F 50.0 °F 63% 29.74 in 10.0 mi South 6.9 mph - N/A   Mostly Cloudy
6:53 PM 64.9 °F 48.9 °F 56% 29.71 in 10.0 mi SSE 3.5 mph - N/A   Scattered Clouds
7:53 PM 57.9 °F 53.1 °F 84% 29.75 in 10.0 mi Variable 3.5 mph - N/A   Mostly Cloudy
8:53 PM 59.0 °F 52.0 °F 78% 29.78 in 10.0 mi Calm Calm - N/A   Overcast
9:53 PM 57.0 °F 51.1 °F 81% 29.84 in 8.0 mi Calm Calm - 0.03 in Rain Light Rain
10:53 PM 55.9 °F 53.1 °F 90% 29.82 in 10.0 mi Calm Calm - 0.01 in   Overcast
11:53 PM 54.0 °F 52.0 °F 93% 29.80 in 10.0 mi NNW 3.5 mph - N/A   Scattered Clouds